Wind_Speed
21 22 24 24 25 26 26 27 28 29 30 31 32 33 35 35 36 36 37 37 38 39 40 41 41 41 42 43 44 45 46 48 49 50 50 50 50 50 52 52 53 54 54 55
19 20 21 21 22 23 23 24 25 26 27 29 30 31 32 32 33 33 35 36 37 38 38 38 39 40 40 40 41 42 43 44 45 46 48 48 48 48 50 51 51 52 54 54
16 16 17 17 18 19 20 21 22 23 24 25 26 27 28 29 30 32 33 34 34 34 34 35 36 37 37 37 37 38 39 40 41 42 44 45 46 46 47 48 49 50 51 52
12 13 14 15 15 16 17 19 20 21 21 21 22 23 24 26 27 28 28 29 29 30 30 32 33 33 33 33 34 35 36 37 37 37 38 39 40 42 43 44 45 46 47 48
9 10 11 12 13 13 14 14 15 17 18 18 19 21 21 22 22 22 22 24 25 26 28 29 29 29 29 30 30 30 31 31 32 32 34 35 36 37 37 38 40 42 43 44
7 7 8 9 10 11 11 11 12 13 14 15 16 18 18 18 18 19 20 21 21 22 23 24 25 25 25 25 25 26 26 25 25 26 27 29 30 31 32 34 35 37 38 40
6 6 6 7 8 8 9 9 10 10 11 13 14 14 15 15 16 18 18 19 19 19 19 19 20 20 20 20 20 21 21 21 21 21 21 23 24 25 26 29 30 32 34 35
5 5 5 5 5 6 6 7 7 8 9 10 10 11 12 13 14 16 16 16 16 16 16 15 15 15 15 16 16 15 15 15 16 17 17 18 19 20 20 22 24 25 26 28
5 5 4 3 3 3 4 4 5 6 7 7 8 9 10 10 11 12 12 12 12 12 11 11 11 11 11 12 12 11 11 11 12 13 14 15 15 16 18 19 21 22 23 25
5 4 3 2 1 2 3 3 3 4 4 5 6 7 8 7 9 9 9 9 9 9 10 10 10 10 10 10 10 10 10 10 11 12 13 13 14 14 16 17 18 20 22 23
5 4 3 2 1 0 1 2 3 3 3 4 5 6 7 7 7 8 7 7 7 8 9 9 9 9 9 9 9 10 10 11 12 12 11 11 12 13 15 16 17 19 21 22
5 4 3 3 2 1 1 1 1 2 3 4 5 6 7 6 7 7 7 7 7 8 8 9 9 9 9 9 10 10 11 12 12 12 11 11 12 14 15 16 18 19 21 22
5 5 4 3 2 2 1 1 2 3 3 4 5 6 6 6 6 6 7 7 8 8 9 9 10 10 10 10 11 12 12 12 13 13 13 12 13 14 15 16 18 20 22 23
7 6 5 4 3 2 2 1 2 3 4 4 5 6 7 7 7 7 8 8 9 9 9 10 10 10 10 11 13 13 14 14 15 15 15 14 15 15 16 18 19 21 22 24
6 5 5 4 3 3 2 3 4 4 5 6 6 7 7 8 7 7 8 9 9 10 11 12 12 12 12 13 14 14 15 16 17 17 17 17 17 18 18 20 21 22 23 25
6 6 5 4 4 3 3 4 5 6 7 7 7 7 8 8 8 9 9 10 10 11 12 12 13 13 14 15 16 17 18 18 19 19 19 19 19 20 21 22 23 24 26 27
6 6 6 5 5 5 5 6 7 7 8 9 8 8 9 9 9 10 11 11 11 12 13 13 14 15 16 17 18 19 20 20 21 21 21 21 22 23 24 25 27 28 29 31
7 8 8 7 8 7 8 8 9 9 10 10 9 10 10 10 10 11 12 13 13 13 14 15 15 16 17 18 19 20 20 21 22 22 23 23 24 25 27 29 30 32 34 36
10 10 11 11 11 10 10 10 11 11 11 11 11 11 12 12 13 14 14 15 15 16 16 17 18 19 19 20 20 21 22 22 23 24 25 27 28 29 31 32 34 36 37 39
12 12 13 13 14 13 13 13 13 13 12 13 14 14 15 15 16 16 17 17 18 18 19 19 20 20 21 22 22 23 24 25 26 28 29 30 31 33 34 36 37 38 40 41
15 15 15 15 15 15 15 15 15 15 15 15 16 16 17 17 17 18 18 19 19 20 20 21 22 22 23 24 25 26 27 28 29 31 32 33 35 36 37 38 39 41 42 43
17 17 17 17 17 17 17 16 17 17 17 17 17 17 18 19 19 20 20 20 21 21 22 23 24 25 26 27 28 28 29 31 32 34 35 36 37 38 39 41 42 44 45 46
19 19 19 18 18 19 18 18 18 19 19 19 19 20 21 21 21 22 22 23 23 24 24 25 26 27 28 29 30 31 32 33 35 36 37 38 39 40 42 43 44 46 47 48
20 22 22 21 20 21 21 21 21 22 22 23 23 23 23 23 23 23 24 25 25 26 27 27 28 29 30 31 32 33 34 36 37 37 38 39 41 42 44 45 47 48 49 50
23 25 25 24 23 24 24 24 24 25 25 26 26 26 26 26 26 26 26 26 27 28 28 29 30 31 32 33 34 35 36 37 38 39 40 42 43 44 46 47 48 50 51 52
25 28 28 26 27 28 27 27 28 28 28 28 28 29 29 29 28 28 28 29 29 29 30 31 32 33 34 35 35 36 36 38 39 41 42 43 44 46 47 48 49 50 52 53
Wind_Direction
210 213 216 221 228 232 236 238 241 245 247 251 254 257 259 261 263 264 265 266 268 270 270 271 271 271 272 272 271 268 266 265 263 263 262 262 262 262 260 259 257 257 256 255
204 209 215 220 227 231 235 239 243 247 250 253 255 257 260 262 264 265 266 268 270 271 271 272 273 273 274 275 274 271 269 267 266 264 262 261 261 261 260 258 257 256 255 255
198 203 207 214 222 228 235 241 245 249 251 253 255 257 260 263 266 268 269 270 271 272 273 274 275 275 276 276 275 273 271 270 268 266 264 263 262 261 260 258 257 256 255 254
192 200 206 212 221 230 238 241 246 248 250 253 256 259 262 266 269 270 272 273 274 274 275 277 278 278 278 278 278 275 272 271 269 267 265 264 263 261 260 259 256 255 254 254
184 195 207 216 223 230 237 241 245 248 252 256 260 265 268 270 273 274 277 279 278 277 277 279 279 279 280 280 279 278 275 273 271 269 266 265 264 261 258 257 256 255 254 254
176 189 207 220 226 232 237 241 247 255 259 262 266 270 273 274 276 279 284 285 283 282 282 282 280 280 281 281 281 280 278 276 274 271 269 266 265 262 258 257 257 255 255 255
163 180 199 212 219 226 234 242 251 259 266 271 274 275 277 279 279 283 287 288 287 287 286 286 285 286 288 288 290 287 283 280 278 274 272 269 266 264 260 258 258 257 257 257
143 160 175 186 202 220 234 242 253 263 271 276 281 286 287 288 288 288 290 291 291 291 290 289 291 292 294 295 295 295 290 286 281 277 275 271 268 266 262 260 261 260 260 260
114 131 143 160 186 213 226 245 261 270 274 283 290 297 298 297 296 295 294 293 294 295 297 300 302 305 308 308 307 303 301 295 288 284 280 276 271 267 266 264 263 263 264 266
98 106 110 126 188 227 243 250 255 265 282 298 302 307 307 304 300 302 301 299 299 304 311 316 317 318 319 320 321 314 305 304 299 295 292 284 279 276 274 270 268 267 270 272
83 85 82 85 90 272 262 260 267 285 303 314 325 327 320 317 316 318 315 314 315 320 327 331 331 331 327 325 327 329 326 323 318 310 303 297 289 283 278 276 275 275 274 276
66 63 57 45 31 19 341 291 292 310 323 326 333 338 327 325 320 321 327 330 333 335 338 341 340 338 337 336 334 332 327 323 322 319 314 306 297 291 288 284 282 282 280 279
56 51 44 44 40 32 36 15 340 338 339 340 342 342 337 337 336 335 340 340 339 339 339 340 339 340 341 339 336 333 330 328 326 322 317 313 311 304 297 291 288 287 285 285
54 48 44 42 42 42 37 6 349 339 335 334 336 336 335 333 333 331 334 339 340 338 337 336 336 335 334 335 336 336 335 334 331 327 320 313 309 306 301 297 295 293 291 291
37 34 33 35 33 24 2 342 333 329 328 328 331 327 325 332 335 334 332 333 335 336 335 333 330 329 328 328 331 333 332 330 329 326 322 316 312 310 307 304 301 298 298 298
16 15 9 3 353 350 343 334 330 329 329 332 331 328 324 329 330 330 328 327 328 327 327 330 331 329 327 324 322 322 322 322 321 321 320 318 313 311 309 308 306 304 303 302
348 347 347 341 330 325 321 316 316 323 324 326 328 325 323 324 323 324 324 324 323 325 327 327 327 326 326 326 323 321 320 319 319 318 317 316 314 311 309 308 307 305 304 303
325 322 324 323 320 318 318 313 311 313 315 315 317 317 320 319 318 318 319 319 318 319 321 322 322 322 322 322 321 321 321 320 320 319 317 316 314 312 311 310 308 307 306 305
316 312 312 313 312 314 314 309 307 307 309 309 311 312 313 313 311 311 312 314 315 316 316 317 319 319 320 321 320 320 320 320 319 317 317 315 313 312 311 310 309 308 307 305
315 310 308 307 306 308 308 306 305 305 305 304 305 307 308 308 306 306 307 311 313 313 314 314 315 316 316 317 317 316 316 316 316 316 315 313 312 311 310 309 309 308 307 306
307 306 304 302 301 303 302 302 302 302 303 303 302 303 305 307 307 307 308 309 310 311 311 312 312 312 313 313 314 313 313 313 313 313 313 312 312 311 311 310 310 310 309 308
302 301 299 298 298 298 298 298 299 301 301 300 300 301 304 306 307 307 307 307 307 307 307 308 309 309 310 310 310 311 311 311 311 311 312 312 311 311 310 310 310 310 310 309
298 296 295 296 297 295 296 296 296 296 297 297 298 300 302 304 304 304 305 305 305 304 304 304 305 306 307 308 308 308 309 309 310 310 311 311 311 311 311 311 311 310 310 309
294 289 289 291 293 293 296 296 295 296 296 296 296 298 300 302 302 302 302 303 304 303 303 303 303 304 305 306 307 307 308 308 309 310 311 311 312 312 312 312 311 311 310 310
291 286 285 288 289 290 293 294 295 295 294 295 295 296 296 298 299 299 299 300 301 302 302 302 303 304 304 305 306 307 308 309 310 311 312 313 313 313 313 312 312 312 311 311
286 287 287 287 287 288 290 291 292 292 293 293 293 293 293 294 295 295 296 298 300 301 302 303 303 303 304 305 306 307 308 309 311 312 312 313 313 313 313 313 313 313 313 313
Height
5664 5669 5673 5678 5682 5686 5690 5693 5696 5699 5702 5705 5706 5708 5709 5710 5711 5712 5712 5713 5713 5712 5711 5711 5710 5709 5707 5706 5705 5705 5705 5705 5705 5706 5708 5709 5711 5712 5713 5715 5718 5720 5722 5726
5664 5668 5672 5676 5679 5683 5686 5689 5692 5694 5696 5699 5700 5702 5703 5703 5704 5705 5705 5705 5704 5704 5702 5701 5700 5699 5697 5696 5695 5694 5693 5693 5693 5694 5695 5696 5698 5700 5701 5702 5705 5707 5710 5713
5663 5667 5670 5674 5677 5681 5683 5686 5688 5690 5691 5693 5695 5697 5697 5697 5697 5697 5697 5697 5696 5696 5695 5693 5692 5690 5688 5687 5685 5683 5682 5682 5682 5682 5683 5684 5686 5688 5689 5690 5692 5695 5697 5701
5663 5667 5670 5673 5676 5678 5680 5682 5684 5686 5687 5689 5690 5691 5692 5692 5691 5691 5691 5690 5689 5688 5688 5686 5684 5682 5680 5678 5676 5674 5673 5672 5672 5672 5673 5673 5674 5676 5677 5679 5681 5683 5686 5689
5664 5667 5669 5672 5674 5676 5678 5680 5681 5682 5683 5685 5685 5686 5688 5686 5686 5686 5685 5684 5683 5682 5681 5679 5677 5675 5673 5671 5669 5667 5665 5664 5663 5663 5663 5664 5664 5666 5667 5669 5671 5674 5677 5679
5665 5667 5669 5671 5673 5675 5677 5678 5679 5680 5681 5683 5682 5683 5684 5682 5682 5681 5681 5679 5678 5676 5675 5673 5671 5669 5667 5665 5663 5661 5659 5657 5656 5656 5656 5656 5657 5658 5659 5661 5663 5666 5668 5671
5666 5668 5669 5671 5673 5674 5676 5677 5678 5678 5679 5680 5680 5679 5680 5679 5678 5677 5676 5675 5673 5672 5670 5668 5666 5664 5662 5659 5657 5655 5653 5652 5651 5650 5650 5650 5650 5651 5652 5654 5656 5658 5660 5662
5667 5669 5670 5671 5673 5674 5674 5676 5677 5677 5677 5677 5677 5676 5677 5676 5675 5674 5672 5671 5669 5668 5666 5664 5662 5660 5658 5656 5653 5651 5649 5648 5647 5646 5646 5645 5646 5646 5647 5648 5650 5652 5654 5656
5669 5670 5671 5672 5672 5673 5674 5674 5676 5676 5676 5675 5675 5675 5674 5673 5672 5671 5669 5668 5666 5665 5663 5661 5659 5657 5655 5652 5650 5648 5646 5645 5644 5643 5643 5642 5642 5642 5642 5643 5645 5647 5648 5650
5671 5672 5672 5672 5673 5674 5674 5674 5675 5675 5674 5674 5674 5673 5673 5671 5670 5669 5667 5666 5664 5663 5661 5659 5657 5655 5652 5650 5648 5646 5645 5643 5642 5641 5640 5639 5639 5639 5639 5640 5641 5642 5643 5644
5672 5673 5674 5674 5674 5674 5675 5675 5674 5674 5674 5673 5673 5675 5672 5670 5669 5667 5666 5664 5662 5661 5659 5657 5654 5653 5651 5649 5647 5645 5643 5642 5640 5639 5637 5637 5636 5636 5636 5636 5637 5638 5638 5639
5674 5675 5674 5675 5675 5674 5674 5674 5674 5675 5674 5672 5672 5675 5670 5669 5667 5666 5665 5663 5661 5659 5657 5655 5653 5652 5650 5648 5646 5644 5642 5640 5638 5637 5635 5634 5634 5633 5633 5633 5633 5633 5633 5633
5676 5676 5676 5676 5677 5676 5675 5674 5674 5674 5673 5672 5672 5674 5669 5668 5667 5665 5664 5662 5660 5658 5657 5655 5653 5651 5649 5647 5645 5642 5640 5638 5636 5635 5633 5632 5631 5630 5630 5629 5629 5629 5628 5628
5677 5677 5677 5677 5676 5675 5675 5675 5674 5674 5673 5672 5672 5671 5669 5667 5666 5664 5663 5661 5659 5658 5656 5654 5652 5650 5648 5646 5644 5641 5639 5637 5635 5633 5631 5630 5629 5628 5627 5626 5625 5624 5623 5621
5679 5679 5677 5677 5676 5675 5675 5675 5674 5673 5672 5672 5671 5669 5668 5666 5664 5663 5661 5660 5658 5657 5655 5653 5651 5648 5646 5644 5642 5640 5637 5635 5633 5631 5629 5627 5625 5624 5623 5621 5620 5618 5617 5615
5680 5679 5678 5678 5676 5676 5675 5675 5673 5672 5671 5670 5669 5668 5666 5665 5663 5662 5660 5658 5657 5655 5653 5651 5649 5647 5644 5642 5640 5638 5635 5633 5630 5628 5625 5623 5621 5619 5618 5616 5614 5612 5610 5607
5680 5679 5679 5678 5676 5676 5676 5675 5673 5672 5671 5669 5668 5667 5665 5663 5662 5660 5658 5657 5655 5653 5651 5649 5647 5645 5642 5640 5637 5634 5632 5629 5627 5624 5621 5619 5617 5614 5612 5610 5607 5605 5602 5599
5680 5679 5678 5677 5677 5675 5677 5673 5671 5670 5669 5667 5666 5664 5662 5661 5659 5658 5656 5654 5652 5650 5648 5646 5644 5642 5639 5636 5634 5631 5628 5625 5622 5620 5617 5614 5611 5609 5606 5603 5600 5597 5593 5589
5679 5678 5676 5675 5674 5673 5673 5671 5669 5668 5667 5665 5663 5662 5660 5658 5657 5655 5653 5651 5649 5647 5645 5642 5640 5638 5635 5632 5629 5626 5623 5621 5618 5615 5611 5608 5605 5602 5598 5595 5591 5587 5583 5578
5677 5676 5675 5672 5670 5670 5671 5668 5665 5665 5664 5662 5660 5659 5657 5655 5654 5653 5650 5647 5645 5643 5641 5638 5636 5633 5630 5627 5624 5621 5618 5615 5612 5608 5605 5601 5598 5594 5590 5586 5581 5577 5572 5567
5675 5674 5672 5669 5667 5667 5667 5664 5663 5662 5661 5658 5656 5655 5653 5651 5650 5648 5645 5643 5641 5638 5636 5633 5631 5628 5625 5622 5619 5615 5612 5609 5605 5601 5597 5593 5589 5585 5580 5576 5571 5566 5561 5556
5672 5670 5668 5666 5664 5665 5662 5660 5659 5658 5655 5653 5652 5650 5648 5646 5644 5642 5640 5638 5636 5633 5631 5628 5625 5622 5619 5616 5612 5609 5605 5602 5598 5594 5589 5585 5580 5575 5570 5565 5560 5555 5550 5544
5667 5666 5663 5663 5663 5659 5657 5655 5654 5652 5650 5648 5647 5645 5643 5641 5639 5637 5635 5632 5630 5627 5624 5622 5619 5616 5612 5609 5605 5602 5598 5593 5589 5585 5580 5575 5570 5565 5560 5555 5549 5543 5537 5531
5663 5660 5658 5656 5657 5654 5652 5650 5649 5647 5645 5643 5641 5640 5638 5636 5633 5631 5628 5626 5623 5620 5618 5615 5612 5608 5605 5601 5597 5594 5589 5585 5580 5576 5571 5566 5560 5555 5549 5543 5537 5531 5524 5517
5657 5653 5651 5650 5650 5648 5647 5644 5642 5640 5639 5637 5635 5633 5631 5629 5627 5624 5622 5619 5616 5613 5610 5607 5604 5601 5597 5593 5589 5585 5580 5576 5571 5566 5561 5556 5550 5544 5538 5531 5524 5517 5510 5503
5649 5645 5643 5643 5642 5640 5639 5637 5635 5633 5631 5629 5627 5625 5623 5621 5619 5616 5614 5611 5608 5605 5602 5599 5596 5592 5588 5584 5580 5576 5571 5566 5561 5556 5551 5545 5539 5532 5526 5519 5511 5503 5496 5488